This is the latest recevied weather packets stored in our database for station/object 9W2IJB-3. If no packets are shown the sender has not sent any weather packets the latest 10 day(s).
| Time | Temp. | Humidity | Pressure | Rain* | Wind** | Luminosity | Snow |
|---|---|---|---|---|---|---|---|
| 1788612978 | 27.22° C | 66% | 1023.9 hPa | - | - | - | - |
| 1788611778 | 27.22° C | 63% | 1023.7 hPa | - | - | - | - |
| 1788610576 | 27.78° C | 60% | 1023.6 hPa | - | - | - | - |
| 1788609376 | 27.78° C | 57% | 1023.3 hPa | - | - | - | - |
| 1788608176 | 27.78° C | 56% | 1023.1 hPa | - | - | - | - |
| 1788606985 | 28.33° C | 56% | 1022.7 hPa | - | - | - | - |
| 1788605776 | 28.33° C | 56% | 1022.6 hPa | - | - | - | - |
| 1788604577 | 28.89° C | 55% | 1022.4 hPa | - | - | - | - |
| 1788603419 | 28.89° C | 54% | 1022.2 hPa | - | - | - | - |
| 1788603376 | 28.89° C | 54% | 1022.2 hPa | - | - | - | - |
| 1788601015 | 30° C | 52% | 1021.8 hPa | - | - | - | - |
| 1788600982 | 30° C | 52% | 1021.8 hPa | - | - | - | - |
| 1788599785 | 30.56° C | 53% | 1021.7 hPa | - | - | - | - |
| 1788598578 | 31.11° C | 51% | 1022 hPa | - | - | - | - |
| 1788597378 | 31.67° C | 50% | 1022 hPa | - | - | - | - |
| 1788596216 | 32.22° C | 49% | 1022.1 hPa | - | - | - | - |
| 1788596178 | 32.22° C | 49% | 1022.1 hPa | - | - | - | - |
| 1788594979 | 32.78° C | 48% | 1022.3 hPa | - | - | - | - |
| 1788593778 | 33.33° C | 47% | 1022.4 hPa | - | - | - | - |
| 1788592578 | 33.33° C | 46% | 1022.7 hPa | - | - | - | - |
| 1788591386 | 33.33° C | 46% | 1023 hPa | - | - | - | - |
| 1788590178 | 32.78° C | 49% | 1023.4 hPa | - | - | - | - |
| 1788588978 | 32.78° C | 50% | 1023.7 hPa | - | - | - | - |
| 1788587778 | 32.22° C | 52% | 1024 hPa | - | - | - | - |
| 1788586578 | 32.22° C | 50% | 1024.5 hPa | - | - | - | - |
* Rain since midnight (hover to see other rain measurements)
** Current wind speed in m/s (hover to see current wind gust speed)